Weather History for Canby, MN

Change the Weather History Date:

Wednesday, October 19, 2011

  Actual Average (KMML) Record (KMML)
Temperature  
Mean Temperature 36 °F -  
Max Temperature 45 °F 57 °F 86 °F (2003)
Min Temperature 26 °F 33 °F 15 °F (1972)
Degree Days  
Heating Degree Days 30    
Moisture  
Dew Point 28 °F    
Average Humidity 74    
Maximum Humidity 89    
Minimum Humidity 60    
Precipitation  
Precipitation 0.00 in - - ()
Sea Level Pressure  
Sea Level Pressure 30.15 in    
Wind  
Wind Speed 9 mph (NNW)    
Max Wind Speed 13 mph    
Max Gust Speed 20 mph    
Visibility 10 miles    
Events      
Averages and records for this station are not official NWS values.
T = Trace of Precipitation, MM = Missing Value Source: NWS Daily Summary

Daily Weather History Graph

Daily Weather History Graph

Search for Another Location

Airport:

Trip Planner

Search our weather history database for the weather conditions in past years. The results will help you decide how hot, cold, wet, or windy it might be!

Date:

Astronomy

Oct. 19, 2011 Rise Set
Actual Time 7:45 AM CDT 6:34 PM CDT
Civil Twilight 7:15 AM CDT 7:03 PM CDT
Nautical Twilight 6:41 AM CDT 7:37 PM CDT
Astronomical Twilight 6:07 AM CDT 8:11 PM CDT
Moon No Moon Rise 2:23 PM CDT (10/19)
Length of Visible Light 11h 47m
Length of Day
10h 48m
Waning Gibbous, 54% of the Moon is Illuminated
Oct 19
Waning Gibbous
Oct 19
Last Quarter
Oct 26
New
Nov 2
First Quarter
Nov 10
Full

Hourly Weather History & Observations

Time (CDT) Temp. Windchill Dew Point Humidity Pressure Visibility Wind Dir Wind Speed Gust Speed Precip Events Conditions
12:35 AM 31.5 °F 24.2 °F 25.0 °F 77% 30.14 in 10.0 mi WNW 8.1 mph - N/A   Clear
12:55 AM 31.8 °F 23.9 °F 24.8 °F 75% 30.14 in 10.0 mi WNW 9.2 mph - N/A   Clear
1:15 AM 31.3 °F 23.9 °F 24.4 °F 76% 30.13 in 10.0 mi WNW 8.1 mph - N/A   Clear
1:34 AM 30.9 °F 23.5 °F 24.3 °F 76% 30.13 in 10.0 mi WNW 8.1 mph - N/A   Clear
1:55 AM 30.2 °F 24.3 °F 23.7 °F 77% 30.13 in 10.0 mi WNW 5.8 mph - N/A   Clear
2:15 AM 29.8 °F 22.2 °F 23.5 °F 77% 30.13 in 10.0 mi NW 8.1 mph - N/A   Clear
2:35 AM 29.7 °F 21.3 °F 23.2 °F 77% 30.13 in 10.0 mi NW 9.2 mph - N/A   Clear
3:15 AM 29.5 °F 21.8 °F 23.0 °F 77% 30.14 in 10.0 mi NW 8.1 mph - N/A   Clear
3:35 AM 29.8 °F 21.5 °F 23.0 °F 76% 30.14 in 10.0 mi NW 9.2 mph - N/A   Clear
3:55 AM 29.3 °F 21.5 °F 22.8 °F 77% 30.14 in 10.0 mi NW 8.1 mph - N/A   Clear
4:34 AM 29.3 °F 20.2 °F 23.0 °F 77% 30.14 in 10.0 mi NW 10.4 mph - N/A   Clear
4:55 AM 29.1 °F 20.6 °F 23.0 °F 78% 30.15 in 10.0 mi NW 9.2 mph - N/A   Clear
5:15 AM 28.8 °F 20.2 °F 23.4 °F 80% 30.15 in 10.0 mi NW 9.2 mph - N/A   Clear
5:34 AM 28.4 °F 19.1 °F 23.7 °F 83% 30.15 in 10.0 mi NW 10.4 mph - N/A   Clear
5:55 AM 28.8 °F 20.2 °F 23.9 °F 82% 30.15 in 10.0 mi NW 9.2 mph - N/A   Clear
6:15 AM 27.9 °F 19.8 °F 23.9 °F 85% 30.16 in 10.0 mi NW 8.1 mph - N/A   Clear
6:35 AM 26.6 °F 17.5 °F 23.5 °F 88% 30.16 in 10.0 mi NW 9.2 mph - N/A   Clear
6:55 AM 26.6 °F 16.8 °F 23.7 °F 89% 30.16 in 10.0 mi WNW 10.4 mph - N/A   Clear
7:34 AM 27.0 °F 18.7 °F 23.5 °F 87% 30.17 in 10.0 mi NW 8.1 mph - N/A   Clear
7:55 AM 26.2 °F 17.8 °F 23.2 °F 88% 30.17 in 10.0 mi NW 8.1 mph - N/A   Clear
8:14 AM 26.6 °F 18.2 °F 23.7 °F 89% 30.18 in 10.0 mi NW 8.1 mph - N/A   Scattered Clouds
8:34 AM 29.3 °F 20.8 °F 25.5 °F 86% 30.18 in 10.0 mi NNW 9.2 mph - N/A   Mostly Cloudy
8:55 AM 30.7 °F 22.0 °F 26.6 °F 85% 30.18 in 10.0 mi NNW 10.4 mph - N/A   Overcast
9:35 AM 32.0 °F 24.8 °F 28.0 °F 85% 30.19 in 10.0 mi NNW 8.1 mph - N/A   Overcast
9:55 AM 32.9 °F 25.3 °F 28.4 °F 84% 30.19 in 10.0 mi NNW 9.2 mph - N/A   Overcast
10:14 AM 34.2 °F 26.8 °F 29.3 °F 82% 30.19 in 10.0 mi NNW 9.2 mph - N/A   Overcast
10:35 AM 35.8 °F 28.8 °F 30.2 °F 80% 30.19 in 10.0 mi North 9.2 mph - N/A   Overcast
10:54 AM 35.8 °F 28.8 °F 30.7 °F 82% 30.19 in 7.0 mi NNW 9.2 mph - N/A   Overcast
11:14 AM 37.0 °F 29.8 °F 30.6 °F 77% 30.19 in 10.0 mi NNW 10.4 mph - N/A   Overcast
11:55 AM 39.0 °F 33.4 °F 30.7 °F 72% 30.19 in 10.0 mi NNW 8.1 mph 18.4 mph N/A   Overcast
12:14 PM 39.6 °F 33.5 °F 30.9 °F 71% 30.18 in 10.0 mi NNW 9.2 mph - N/A   Overcast
12:35 PM 40.3 °F 33.4 °F 30.9 °F 69% 30.18 in 10.0 mi North 11.5 mph 16.1 mph N/A   Overcast
12:55 PM 41.2 °F 34.5 °F 30.9 °F 67% 30.18 in 10.0 mi North 11.5 mph 16.1 mph N/A   Overcast
1:14 PM 41.4 °F 35.2 °F 30.9 °F 66% 30.17 in 10.0 mi North 10.4 mph 17.3 mph N/A   Overcast
1:35 PM 41.2 °F 34.5 °F 30.9 °F 67% 30.17 in 10.0 mi NNW 11.5 mph 19.6 mph N/A   Overcast
1:55 PM 42.3 °F 35.5 °F 30.9 °F 64% 30.16 in 10.0 mi NNW 12.7 mph 18.4 mph N/A   Overcast
2:15 PM 43.2 °F 37.0 °F 31.1 °F 62% 30.15 in 10.0 mi North 11.5 mph - N/A   Overcast
2:55 PM 43.9 °F 37.9 °F 31.1 °F 61% 30.15 in 10.0 mi NNW 11.5 mph 17.3 mph N/A   Overcast
3:15 PM 44.6 °F 39.2 °F 31.3 °F 60% 30.14 in 10.0 mi NNW 10.4 mph 16.1 mph N/A   Mostly Cloudy
3:34 PM 44.4 °F 38.2 °F 31.3 °F 60% 30.13 in 10.0 mi North 12.7 mph - N/A   Mostly Cloudy
3:55 PM 44.2 °F 38.8 °F 31.6 °F 61% 30.13 in 10.0 mi North 10.4 mph 17.3 mph N/A   Overcast
4:15 PM 44.1 °F 40.1 °F 31.6 °F 62% 30.13 in 10.0 mi North 6.9 mph - N/A   Overcast
4:35 PM 45.0 °F 39.3 °F 31.6 °F 60% 30.13 in 10.0 mi NNW 11.5 mph - N/A   Overcast
4:55 PM 44.6 °F 40.7 °F 31.6 °F 60% 30.12 in 10.0 mi North 6.9 mph - N/A   Overcast
5:15 PM 44.6 °F 39.7 °F 31.5 °F 60% 30.12 in 10.0 mi NNW 9.2 mph - N/A   Overcast
5:35 PM 44.2 °F 39.7 °F 31.6 °F 61% 30.12 in 10.0 mi NNW 8.1 mph - N/A   Overcast
5:55 PM 44.1 °F 40.8 °F 32.0 °F 63% 30.12 in 10.0 mi NNW 5.8 mph - N/A   Overcast
6:15 PM 43.9 °F 41.3 °F 32.0 °F 63% 30.12 in 10.0 mi NNW 4.6 mph - N/A   Overcast
6:35 PM 43.7 °F 41.1 °F 32.0 °F 63% 30.12 in 10.0 mi North 4.6 mph - N/A   Overcast
6:55 PM 43.0 °F 40.3 °F 32.0 °F 65% 30.13 in 10.0 mi North 4.6 mph - N/A   Overcast
7:15 PM 43.0 °F 39.5 °F 32.0 °F 65% 30.12 in 10.0 mi North 5.8 mph - N/A   Overcast
7:55 PM 42.8 °F 38.0 °F 32.0 °F 66% 30.13 in 10.0 mi North 8.1 mph - N/A   Overcast
8:15 PM 42.3 °F 38.6 °F 32.0 °F 67% 30.13 in 10.0 mi North 5.8 mph - N/A   Overcast
8:35 PM 41.2 °F 37.3 °F 32.0 °F 70% 30.12 in 10.0 mi North 5.8 mph - N/A   Overcast
8:54 PM 39.4 °F 35.2 °F 32.0 °F 75% 30.12 in 10.0 mi NNW 5.8 mph - N/A   Overcast
9:15 PM 38.8 °F 34.6 °F 31.6 °F 75% 30.12 in 10.0 mi NW 5.8 mph - N/A   Overcast
9:35 PM 37.9 °F 35.5 °F 31.5 °F 77% 30.12 in 10.0 mi NW 3.5 mph - N/A   Overcast
9:55 PM 34.3 °F 29.2 °F 30.2 °F 85% 30.12 in 10.0 mi WNW 5.8 mph - N/A   Scattered Clouds
10:15 PM 32.5 °F 27.1 °F 29.8 °F 90% 30.13 in 10.0 mi WNW 5.8 mph - N/A   Clear
10:35 PM 31.6 °F 26.0 °F 28.4 °F 88% 30.12 in 10.0 mi WNW 5.8 mph - N/A   Clear
10:55 PM 30.9 °F 24.3 °F 28.6 °F 91% 30.12 in 10.0 mi WNW 6.9 mph - N/A   Scattered Clouds
11:15 PM 30.4 °F 24.5 °F 28.4 °F 92% 30.12 in 10.0 mi WNW 5.8 mph - N/A   Clear
11:55 PM 31.1 °F 26.4 °F 29.3 °F 93% 30.10 in 10.0 mi NW 4.6 mph - N/A   Clear